Hourly Weather Abrykosove

Today, 7 March, Sunday

Time Temperature Precipitation Wind Pressure Humidity
00:00 -2°C° 0 mm 3 mps 768 mmHg 58%
01:00 -2°C° 0 mm 2 mps 768 mmHg 57%
02:00 -2°C° 0 mm 2 mps 768 mmHg 54%
03:00 -2°C° 0 mm 3 mps 768 mmHg 56%
04:00 -2°C° 0 mm 3 mps 767 mmHg 58%
05:00 -3°C° 0 mm 4 mps 767 mmHg 60%
06:00 -3°C° 0 mm 4 mps 767 mmHg 58%
07:00 -2°C° 0 mm 4 mps 767 mmHg 57%
08:00 -2°C° 0 mm 4 mps 766 mmHg 56%
09:00 0°C° 0 mm 4 mps 766 mmHg 50%
10:00 +1°C° 0 mm 5 mps 766 mmHg 45%
11:00 +2°C° 0 mm 6 mps 765 mmHg 39%
12:00 +3°C° 0 mm 6 mps 765 mmHg 38%
13:00 +3°C° 0 mm 6 mps 764 mmHg 38%
14:00 +4°C° 0 mm 6 mps 763 mmHg 37%
15:00 +4°C° 0 mm 6 mps 762 mmHg 39%
16:00 +4°C° 0 mm 6 mps 762 mmHg 40%
17:00 +4°C° 0 mm 6 mps 761 mmHg 42%
18:00 +3°C° 0 mm 6 mps 761 mmHg 46%
19:00 +2°C° 0 mm 6 mps 760 mmHg 51%
20:00 0°C° 0 mm 7 mps 760 mmHg 56%
21:00 0°C° 0 mm 7 mps 760 mmHg 58%
22:00 -1°C° 0 mm 7 mps 760 mmHg 61%
23:00 -1°C° 0 mm 7 mps 759 mmHg 64%

Tomorrow, 8 March, Monday

Time Temperature Precipitation Wind Pressure Humidity
00:00 -1°C° 0 mm 6 mps 759 mmHg 66%
01:00 -2°C° 0 mm 6 mps 759 mmHg 68%
02:00 -2°C° 0 mm 6 mps 758 mmHg 70%
03:00 -1°C° 0 mm 5 mps 758 mmHg 71%
04:00 -2°C° 0 mm 5 mps 757 mmHg 72%
05:00 -2°C° 0 mm 5 mps 757 mmHg 74%
06:00 -1°C° 0 mm 5 mps 757 mmHg 71%
07:00 -1°C° 0 mm 4 mps 757 mmHg 69%
08:00 -1°C° 0 mm 4 mps 757 mmHg 67%
09:00 +2°C° 0 mm 3 mps 757 mmHg 58%
10:00 +5°C° 0 mm 2 mps 757 mmHg 49%
11:00 +7°C° 0 mm 2 mps 757 mmHg 40%
12:00 +7°C° 0 mm 2 mps 757 mmHg 38%
13:00 +8°C° 0 mm 2 mps 757 mmHg 36%
14:00 +8°C° 0 mm 2 mps 756 mmHg 34%
15:00 +8°C° 0 mm 2 mps 756 mmHg 37%
16:00 +7°C° 0 mm 3 mps 756 mmHg 39%
17:00 +7°C° 0 mm 3 mps 756 mmHg 42%
18:00 +6°C° 0 mm 2 mps 756 mmHg 46%
19:00 +5°C° 0 mm 2 mps 757 mmHg 50%
20:00 +6°C° 0 mm 1 mps 757 mmHg 54%
21:00 +4°C° 0 mm 2 mps 758 mmHg 58%
22:00 +4°C° 0 mm 2 mps 758 mmHg 61%
23:00 +2°C° 0 mm 3 mps 759 mmHg 64%

Day after tomorrow, 9 March, Tuesday

Time Temperature Precipitation Wind Pressure Humidity
00:00 +2°C° 0 mm 3 mps 759 mmHg 66%
01:00 0°C° 0 mm 4 mps 759 mmHg 67%
02:00 0°C° 0 mm 4 mps 759 mmHg 69%
03:00 0°C° 0 mm 4 mps 760 mmHg 68%
04:00 0°C° 0 mm 3 mps 760 mmHg 67%
05:00 0°C° 0 mm 3 mps 760 mmHg 66%
06:00 -1°C° 0 mm 4 mps 760 mmHg 65%
07:00 -1°C° 0 mm 4 mps 761 mmHg 63%
08:00 -1°C° 0 mm 4 mps 761 mmHg 62%
09:00 0°C° 0 mm 4 mps 761 mmHg 56%
10:00 +2°C° 0 mm 3 mps 761 mmHg 50%
11:00 +3°C° 0 mm 3 mps 762 mmHg 45%
12:00 +3°C° 0 mm 3 mps 762 mmHg 42%
13:00 +5°C° 0 mm 2 mps 762 mmHg 40%
14:00 +5°C° 0 mm 2 mps 762 mmHg 37%
15:00 +5°C° 0 mm 2 mps 761 mmHg 39%
16:00 +5°C° 0 mm 2 mps 761 mmHg 40%
17:00 +4°C° 0 mm 2 mps 761 mmHg 42%
18:00 +3°C° 0 mm 2 mps 761 mmHg 48%
19:00 +3°C° 0 mm 2 mps 762 mmHg 54%
20:00 +2°C° 0 mm 2 mps 762 mmHg 60%
21:00 +2°C° 0 mm 2 mps 762 mmHg 62%
22:00 +3°C° 0 mm 1 mps 762 mmHg 64%
23:00 +2°C° 0 mm 1 mps 762 mmHg 66%

10 March, Wednesday

Time Temperature Precipitation Wind Pressure Humidity
00:00 +1°C° 0 mm 2 mps 762 mmHg 66%
01:00 0°C° 0 mm 3 mps 762 mmHg 67%
02:00 0°C° 0 mm 3 mps 762 mmHg 67%
03:00 -1°C° 0 mm 4 mps 762 mmHg 68%
04:00 -1°C° 0 mm 4 mps 762 mmHg 70%
05:00 -1°C° 0 mm 4 mps 762 mmHg 71%
06:00 -1°C° 0 mm 4 mps 762 mmHg 68%
07:00 -1°C° 0 mm 4 mps 762 mmHg 66%
08:00 -1°C° 0 mm 5 mps 762 mmHg 63%
09:00 0°C° 0 mm 5 mps 762 mmHg 62%
10:00 0°C° 0 mm 5 mps 762 mmHg 61%
11:00 0°C° 0 mm 5 mps 762 mmHg 59%
12:00 0°C° 0 mm 5 mps 762 mmHg 58%
13:00 0°C° 0 mm 5 mps 762 mmHg 57%
14:00 0°C° 0 mm 5 mps 761 mmHg 56%
15:00 0°C° 0 mm 5 mps 761 mmHg 59%
16:00 -1°C° 0 mm 5 mps 761 mmHg 63%
17:00 -1°C° 0 mm 4 mps 762 mmHg 66%
18:00 -1°C° 0 mm 4 mps 762 mmHg 64%
19:00 0°C° 0 mm 3 mps 762 mmHg 63%
20:00 0°C° 0 mm 3 mps 763 mmHg 61%
21:00 0°C° 0 mm 3 mps 763 mmHg 61%
22:00 0°C° 0 mm 3 mps 763 mmHg 60%
23:00 -1°C° 0 mm 3 mps 764 mmHg 60%

11 March, Thursday

Time Temperature Precipitation Wind Pressure Humidity
00:00 -1°C° 0 mm 3 mps 764 mmHg 61%
01:00 -2°C° 0 mm 3 mps 764 mmHg 63%
02:00 -3°C° 0 mm 4 mps 764 mmHg 64%
03:00 -2°C° 0 mm 3 mps 765 mmHg 61%
04:00 -4°C° 0 mm 3 mps 765 mmHg 59%
05:00 -4°C° 0 mm 3 mps 765 mmHg 56%
06:00 -2°C° 0 mm 3 mps 765 mmHg 53%
07:00 -1°C° 0 mm 3 mps 765 mmHg 50%
08:00 -1°C° 0 mm 2 mps 765 mmHg 46%
09:00 +1°C° 0 mm 2 mps 765 mmHg 43%
10:00 +2°C° 0 mm 2 mps 766 mmHg 40%
11:00 +3°C° 0 mm 2 mps 766 mmHg 37%
12:00 +2°C° 0 mm 3 mps 765 mmHg 38%
13:00 +3°C° 0 mm 3 mps 765 mmHg 39%
14:00 +3°C° 0 mm 4 mps 765 mmHg 39%
15:00 +1°C° 0 mm 4 mps 764 mmHg 42%
16:00 +1°C° 0 mm 4 mps 764 mmHg 44%
17:00 +1°C° 0 mm 5 mps 764 mmHg 46%
18:00 0°C° 0 mm 5 mps 764 mmHg 51%
19:00 -1°C° 0 mm 6 mps 764 mmHg 55%
20:00 -1°C° 0 mm 6 mps 764 mmHg 60%
21:00 -1°C° 0 mm 7 mps 763 mmHg 62%
22:00 -1°C° 0 mm 7 mps 763 mmHg 65%
23:00 -1°C° 0 mm 8 mps 763 mmHg 67%

12 March, Friday

Time Temperature Precipitation Wind Pressure Humidity
00:00 0°C° 0 mm 8 mps 762 mmHg 70%
01:00 0°C° 0 mm 9 mps 762 mmHg 72%
02:00 0°C° 0 mm 9 mps 761 mmHg 75%
03:00 0°C° 0 mm 9 mps 761 mmHg 77%
04:00 0°C° 0 mm 9 mps 760 mmHg 79%
05:00 0°C° 0 mm 9 mps 760 mmHg 82%
06:00 +1°C° 0 mm 9 mps 760 mmHg 80%
07:00 +1°C° 0 mm 10 mps 759 mmHg 79%
08:00 +2°C° 0 mm 10 mps 759 mmHg 78%
09:00 +3°C° 0 mm 10 mps 759 mmHg 73%
10:00 +4°C° 0 mm 11 mps 759 mmHg 69%
11:00 +6°C° 0 mm 11 mps 758 mmHg 65%
12:00 +6°C° 0 mm 10 mps 758 mmHg 64%
13:00 +6°C° 0 mm 10 mps 757 mmHg 64%
14:00 +6°C° 0 mm 9 mps 756 mmHg 64%
15:00 +6°C° 0 mm 9 mps 756 mmHg 64%
16:00 +6°C° 0 mm 9 mps 755 mmHg 64%
17:00 +6°C° 0 mm 8 mps 755 mmHg 64%
18:00 +6°C° 0 mm 7 mps 755 mmHg 66%
19:00 +6°C° 0 mm 7 mps 755 mmHg 68%
20:00 +7°C° 0 mm 6 mps 755 mmHg 70%
21:00 +5°C° 0 mm 6 mps 755 mmHg 71%
22:00 +6°C° 0 mm 5 mps 755 mmHg 73%
23:00 +6°C° 0 mm 5 mps 755 mmHg 74%
Show more